Three Rivers, MI

12:23 AM EDT on October 01, 2016 (GMT -0400)
Three Rivers Municipal-Haines

Weather History for KHAI - August, 2014

Change the Weather History Date:

Tuesday, August 19, 2014

  Actual Average Record
Temperature  
Mean Temperature 74 °F -  
Max Temperature 84 °F 82 °F 97 °F (1955)
Min Temperature 64 °F 57 °F 40 °F (1977)
Cooling Degree Days 9    
Growing Degree Days 24 (Base 50)    
Moisture  
Dew Point 66 °F    
Average Humidity 82    
Maximum Humidity 93    
Minimum Humidity 59    
Precipitation  
Precipitation 0.00 in - - ()
Sea Level Pressure  
Sea Level Pressure 29.79 in    
Wind  
Wind Speed 5 mph (SSW)    
Max Wind Speed 20 mph    
Max Gust Speed 31 mph    
Visibility 9 miles    
Events Rain    
Averages and records for this station are not official NWS values.
T = Trace of Precipitation, MM = Missing Value Source: NWS Daily Summary

Daily Weather History Graph

Daily Weather History Graph

Search for Another Location

Airport or City:

Trip Planner

Search our weather history database for the weather conditions in past years. The results will help you decide how hot, cold, wet, or windy it might be!

Date:

Astronomy

Aug. 19, 2014 Rise Set
Actual Time 6:54 AM EDT 8:36 PM EDT
Civil Twilight 6:24 AM EDT 9:06 PM EDT
Nautical Twilight 5:48 AM EDT 9:42 PM EDT
Astronomical Twilight 5:10 AM EDT 10:20 PM EDT
Moon 1:44 AM EDT (8/19) 4:34 PM EDT (8/19)
Length of Visible Light 14h 41m
Length of Day
13h 42m
Waning Crescent, 29% of the Moon is Illuminated
Aug 19
Waning Crescent
Aug 25
New
Sep 2
First Quarter
Sep 8
Full
Sep 15
Last Quarter

Hourly Weather History & Observations

Time (EDT) Temp. Heat Index Dew Point Humidity Pressure Visibility Wind Dir Wind Speed Gust Speed Precip Events Conditions
12:15 AM 68.5 °F - 66.2 °F 92% 29.83 in 7.0 mi ESE 3.5 mph - N/A   Overcast
12:34 AM 71.1 °F - 68.2 °F 91% 29.84 in 10.0 mi ESE 3.5 mph - N/A   Overcast
12:55 AM 71.8 °F - 67.5 °F 86% 29.83 in 10.0 mi SE 3.5 mph - N/A   Mostly Cloudy
1:15 AM 72.0 °F - 66.7 °F 84% 29.83 in 10.0 mi SSE 5.8 mph - N/A   Mostly Cloudy
1:35 AM 71.6 °F - 65.3 °F 80% 29.83 in 10.0 mi SSE 4.6 mph - N/A   Mostly Cloudy
1:54 AM 70.9 °F - 64.4 °F 80% 29.82 in 10.0 mi SSE 5.8 mph - N/A   Mostly Cloudy
2:15 AM 70.7 °F - 63.9 °F 79% 29.83 in 10.0 mi South 3.5 mph - N/A   Overcast
2:34 AM 70.0 °F - 64.0 °F 81% 29.83 in 10.0 mi Calm Calm - N/A   Overcast
2:55 AM 69.4 °F - 63.5 °F 81% 29.82 in 10.0 mi South 3.5 mph - N/A   Mostly Cloudy
3:15 AM 69.1 °F - 63.0 °F 81% 29.80 in 10.0 mi SSE 5.8 mph - N/A   Mostly Cloudy
3:34 AM 68.4 °F - 62.8 °F 82% 29.80 in 10.0 mi South 5.8 mph - N/A   Scattered Clouds
3:55 AM 67.8 °F - 62.4 °F 83% 29.80 in 10.0 mi South 4.6 mph - N/A   Clear
4:14 AM 66.4 °F - 62.1 °F 86% 29.81 in 10.0 mi SW 3.5 mph - N/A   Clear
4:34 AM 65.5 °F - 62.1 °F 89% 29.80 in 10.0 mi Calm Calm - N/A   Clear
4:55 AM 66.2 °F - 62.6 °F 88% 29.79 in 10.0 mi South 5.8 mph - N/A   Clear
5:14 AM 65.7 °F - 62.4 °F 89% 29.79 in 10.0 mi South 5.8 mph - N/A   Clear
5:35 AM 65.5 °F - 62.2 °F 89% 29.79 in 10.0 mi South 5.8 mph - N/A   Clear
5:55 AM 65.1 °F - 62.2 °F 90% 29.80 in 10.0 mi SW 3.5 mph - N/A   Clear
6:14 AM 64.8 °F - 62.2 °F 92% 29.81 in 7.0 mi SW 3.5 mph - N/A   Clear
6:35 AM 64.4 °F - 62.1 °F 92% 29.81 in 7.0 mi WSW 3.5 mph - N/A   Clear
6:54 AM 64.6 °F - 62.6 °F 93% 29.81 in 7.0 mi South 4.6 mph - N/A   Scattered Clouds
7:15 AM 65.3 °F - 63.0 °F 92% 29.82 in 5.0 mi South 5.8 mph - N/A   Scattered Clouds
7:34 AM 66.2 °F - 63.7 °F 92% 29.82 in 5.0 mi SSW 3.5 mph - N/A   Mostly Cloudy
7:55 AM 66.6 °F - 64.2 °F 92% 29.82 in 5.0 mi Calm Calm - N/A   Mostly Cloudy
8:14 AM 67.6 °F - 64.8 °F 90% 29.82 in 5.0 mi WNW 3.5 mph - N/A   Mostly Cloudy
8:35 AM 68.9 °F - 65.5 °F 89% 29.82 in 5.0 mi SW 4.6 mph - N/A   Mostly Cloudy
8:54 AM 69.4 °F - 66.2 °F 89% 29.82 in 5.0 mi SSW 3.5 mph - N/A   Overcast
9:15 AM 70.2 °F - 66.4 °F 88% 29.83 in 5.0 mi Calm Calm - N/A   Overcast
9:35 AM 70.7 °F - 66.9 °F 88% 29.82 in 5.0 mi Calm Calm - N/A   Overcast
9:54 AM 72.0 °F - 67.3 °F 85% 29.80 in 7.0 mi SSE 4.6 mph - N/A   Mostly Cloudy
10:15 AM 72.5 °F - 67.5 °F 84% 29.80 in 5.0 mi SSE 4.6 mph - N/A   Haze
10:35 AM 72.7 °F - 67.6 °F 84% 29.80 in 5.0 mi SSE 4.6 mph - N/A   Haze
10:54 AM 75.0 °F - 68.9 °F 81% 29.81 in 7.0 mi South 6.9 mph - N/A   Scattered Clouds
11:15 AM 76.3 °F - 69.4 °F 79% 29.80 in 7.0 mi SSW 8.1 mph - N/A   Scattered Clouds
11:34 AM 78.3 °F - 69.8 °F 75% 29.79 in 7.0 mi South 12.7 mph - N/A   Scattered Clouds
11:55 AM 79.9 °F - 70.2 °F 72% 29.79 in 7.0 mi SSW 13.8 mph 19.6 mph N/A   Mostly Cloudy
12:14 PM 79.5 °F - 69.8 °F 72% 29.77 in 10.0 mi SSW 13.8 mph - N/A   Mostly Cloudy
12:35 PM 80.4 °F 83.6 °F 69.8 °F 70% 29.77 in 10.0 mi SW 15.0 mph 19.6 mph N/A   Mostly Cloudy
12:55 PM 80.6 °F 83.5 °F 68.9 °F 67% 29.77 in 10.0 mi SW 11.5 mph 19.6 mph N/A   Mostly Cloudy
1:14 PM 82.9 °F 86.7 °F 69.4 °F 64% 29.76 in 10.0 mi South 15.0 mph - N/A   Mostly Cloudy
1:35 PM 82.4 °F 85.6 °F 68.7 °F 63% 29.75 in 10.0 mi SW 19.6 mph - N/A   Mostly Cloudy
1:55 PM 83.3 °F 86.6 °F 68.4 °F 61% 29.75 in 10.0 mi SW 17.3 mph 21.9 mph N/A   Scattered Clouds
2:14 PM 84.2 °F 87.6 °F 68.4 °F 59% 29.73 in 10.0 mi SSW 11.5 mph 24.2 mph N/A   Mostly Cloudy
2:35 PM 83.8 °F 87.0 °F 68.4 °F 59% 29.73 in 10.0 mi SW 17.3 mph 24.2 mph N/A   Mostly Cloudy
2:55 PM 83.5 °F 86.7 °F 68.2 °F 60% 29.74 in 10.0 mi SW 16.1 mph 24.2 mph N/A   Mostly Cloudy
3:14 PM 83.5 °F 86.9 °F 68.7 °F 61% 29.75 in 10.0 mi WSW 11.5 mph 19.6 mph N/A   Mostly Cloudy
3:35 PM 83.1 °F 86.3 °F 68.4 °F 61% 29.73 in 10.0 mi SSW 13.8 mph 20.7 mph N/A   Mostly Cloudy
3:54 PM 82.4 °F 85.4 °F 68.2 °F 62% 29.74 in 10.0 mi WSW 9.2 mph 21.9 mph N/A   Mostly Cloudy
4:14 PM 67.3 °F - 62.8 °F 85% 29.80 in 1.0 mi WSW 3.5 mph 31.1 mph N/A Rain Heavy Rain
4:35 PM 67.8 °F - 64.2 °F 88% 29.78 in 10.0 mi Calm Calm - N/A Rain Light Rain
4:54 PM 68.2 °F - 64.9 °F 89% 29.78 in 10.0 mi South 5.8 mph - N/A   Scattered Clouds
5:14 PM 69.3 °F - 66.7 °F 92% 29.79 in 10.0 mi South 6.9 mph - N/A   Scattered Clouds
5:35 PM 70.3 °F - 67.3 °F 90% 29.78 in 10.0 mi South 5.8 mph - N/A   Mostly Cloudy
5:54 PM 70.9 °F - 67.3 °F 88% 29.78 in 10.0 mi South 6.9 mph - N/A   Mostly Cloudy
6:34 PM 72.7 °F - 68.9 °F 88% 29.76 in 10.0 mi SSW 4.6 mph - N/A   Scattered Clouds
6:55 PM 72.9 °F - 69.3 °F 88% 29.76 in 10.0 mi Calm Calm - N/A   Clear
7:15 PM 73.4 °F - 69.6 °F 88% 29.76 in 10.0 mi SSW 5.8 mph - N/A   Scattered Clouds
7:34 PM 74.3 °F - 69.3 °F 84% 29.75 in 10.0 mi SSW 8.1 mph - N/A   Mostly Cloudy
7:55 PM 74.3 °F - 68.4 °F 82% 29.75 in 10.0 mi SSW 9.2 mph - N/A   Scattered Clouds
8:14 PM 73.4 °F - 67.1 °F 81% 29.76 in 10.0 mi SW 6.9 mph - N/A   Mostly Cloudy
8:35 PM 72.1 °F - 67.1 °F 84% 29.76 in 10.0 mi South 5.8 mph - N/A   Mostly Cloudy
8:54 PM 71.4 °F - 66.4 °F 84% 29.76 in 10.0 mi Calm Calm - N/A   Scattered Clouds
9:15 PM 70.0 °F - 66.2 °F 88% 29.77 in 10.0 mi SW 3.5 mph - N/A   Clear
9:34 PM 69.4 °F - 65.7 °F 88% 29.77 in 10.0 mi Calm Calm - N/A   Clear
9:55 PM 70.3 °F - 65.8 °F 86% 29.78 in 10.0 mi Calm Calm - N/A   Clear
10:54 PM 69.8 °F - 66.7 °F 90% 29.79 in 10.0 mi SSW 3.5 mph - N/A   Clear
11:15 PM 68.9 °F - 66.4 °F 92% 29.79 in 10.0 mi South 4.6 mph - N/A   Scattered Clouds
11:34 PM 69.3 °F - 67.1 °F 93% 29.78 in 7.0 mi SSW 5.8 mph - N/A   Clear
11:55 PM 69.4 °F - 67.3 °F 93% 29.79 in 7.0 mi SSW 5.8 mph - N/A   Scattered Clouds